This is the latest recevied weather packets stored in our database for station/object K6POO-1. If no packets are shown the sender has not sent any weather packets the latest 10 day(s).
| Time | Temp. | Humidity | Pressure | Rain* | Wind** | Luminosity | Snow |
|---|---|---|---|---|---|---|---|
| 1788541622 | 18.89° C | 60% | 1014.6 hPa | 0 mm | - | 593 W/m² | - |
| 1788541343 | 18.89° C | 62% | 1014.8 hPa | 0 mm | - | 581 W/m² | - |
| 1788541017 | 18.89° C | 63% | 1014.5 hPa | 0 mm | - | 565 W/m² | - |
| 1788540716 | 18.33° C | 63% | 1014.5 hPa | 0 mm | - | 550 W/m² | - |
| 1788540411 | 18.33° C | 63% | 1014.4 hPa | 0 mm | - | 533 W/m² | - |
| 1788540106 | 18.33° C | 65% | 1014.6 hPa | 0 mm | - | 520 W/m² | - |
| 1788539802 | 18.89° C | 65% | 1014.6 hPa | 0 mm | - | 509 W/m² | - |
| 1788539498 | 18.89° C | 66% | 1014.4 hPa | 0 mm | - | 508 W/m² | - |
| 1788539197 | 18.33° C | 65% | 1014.3 hPa | 0 mm | - | 405 W/m² | - |
| 1788538892 | 18.89° C | 65% | 1014.3 hPa | 0 mm | - | 351 W/m² | - |
| 1788538587 | 18.33° C | 67% | 1014.2 hPa | 0 mm | - | 355 W/m² | - |
| 1788538282 | 18.33° C | 68% | 1014.3 hPa | 0 mm | - | 337 W/m² | - |
| 1788537978 | 17.78° C | 69% | 1014.3 hPa | 0 mm | - | 315 W/m² | - |
| 1788537674 | 18.33° C | 68% | 1014.3 hPa | 0 mm | - | 300 W/m² | - |
| 1788537374 | 17.78° C | 69% | 1014.2 hPa | 0 mm | - | 288 W/m² | - |
| 1788537068 | 17.78° C | 70% | 1014.2 hPa | 0 mm | - | 272 W/m² | - |
| 1788536761 | 17.78° C | 70% | 1014.3 hPa | 0 mm | - | 274 W/m² | - |
| 1788536456 | 17.22° C | 70% | 1014.4 hPa | 0 mm | - | 244 W/m² | - |
| 1788536155 | 17.78° C | 69% | 1014.2 hPa | 0 mm | - | 244 W/m² | - |
| 1788535852 | 17.78° C | 70% | 1014.2 hPa | 0 mm | - | 238 W/m² | - |
| 1788535548 | 17.78° C | 69% | 1014 hPa | 0 mm | - | 216 W/m² | - |
| 1788535243 | 17.78° C | 68% | 1014.1 hPa | 0 mm | - | 193 W/m² | - |
| 1788534938 | 17.78° C | 69% | 1014 hPa | 0 mm | - | 177 W/m² | - |
| 1788534638 | 17.22° C | 70% | 1014 hPa | 0 mm | - | 168 W/m² | - |
| 1788534338 | 17.22° C | 71% | 1013.9 hPa | 0 mm | - | 170 W/m² | - |
* Rain latest hour (hover to see other rain measurements)
** Current wind speed in m/s (hover to see current wind gust speed)